Showing default

METEOR 2-11, 15099

Orbit data source: Space-Track

METEOR 2-11, 15099 is a Commonwealth of Independent States-origin payload satellite in LEO that was launched on Thu, 05 Jul 1984 UTC via a TSIKLON-3 launch vehicle from the Plesetsk Missile And Space Complex (PKMTR). Payload-class satellites include a variety of spacecraft equipped with specific instruments for various scientific and technological missions. These include communications satellites like Starlink; space stations such as the ISS; scientific satellites like the Hubble; Earth observation satellites from companies like Planet Labs, Umbra, and HawkEye 360; GPS; miniature CubeSats for education and research; and military/defense satellites.

Loading next visibility...
Identifier
15099, 1984-072A
Orbit
LEO
Country
Flag of CISCIS
Related business
Manufacturer
VNIIEM
Mission
Spacecraft
Bus & Motor
METEOR-2, Unknown motor
Mass
~1,500 kg wet, ~1,500 kg dry
Launch date (UTC)
1984-07-05 (42 years ago)
Launch vehicle
TSIKLON-3
Launch site
Plesetsk Missile And Space Complex (PKMTR)
Object type
Payload
Rocket body
Debris
Shape & HBR
Unknown
Radar Cross Section
Large (>1 m²)

Expand to show TLE details & history
Last TLE update: 9 hours ago

TLE from 9 hours ago
0 METEOR 2-11
1 15099U 84072A   26062.16230933  .00000101  00000-0  75334-4 0  9996
2 15099  82.5303 123.7480 0013831  33.9644 326.2399 13.85292093105661
Epoch: 2026-03-03T03:53Z
TLE epoch observation values (Epoch: 2026-03-03T03:53:43.526Z)
Latitude
-0.00004°
Longitude
-95.62869°
Altitude
939.661 km
Speed
7.386 km/s
True Right ascension
08h 14m 59s
True Declination
0° 00' 00"
Sunlit
Object was in full shadow at epoch
Visualization orbit readout
Latitude
Unknown
Longitude
Unknown
Altitude
Unknown
Speed
Unknown
Apparent Right ascension
Unknown
Apparent Declination
Unknown
Sunlit
N/A
Visualization observer readout
Local Sidereal Time
16:09:06
Azimuth
Unknown
Elevation
Unknown
Doppler factor
Unknown
Orbital elements
Apogee altitude
952.452 km
Perigee altitude
932.202 km
Semi-major axis
7,320.464 km
Eccentricity
0.00138
Inclination
82.5303°
RAAN
123.748°
Arg. of periapsis
33.9644°
True anomaly
326.1517°
Mean anomaly
326.2399°
Eccentric anomaly
326.19581°
Mean motion
3.46526 °/min
Orbital period
103.89 mins
BSTAR
0.000075334
Loading maneuver chart data...
Computing Atmospheric mass density...
Loading historical data...
Loading historical data...
Loading historical data...
Loading historical data...
Loading historical data...
Loading historical data...
Loading historical data...

Documentation

Showing up to 5 results
|